Simultaneous Nadir Overpasses (SNOs) Predictions

Prediction of SNOs between NOAA-19 and METOP-C Satellite Orbit:

Table of predicted SNOs for the next 14.0 days since TLE Epoch: 1/16/2021
Index Date (NOAA-19) Time (NOAA-19) Lat,Lon (NOAA-19) SZA (NOAA-19 ) Date (METOP-C) Time (METOP-C) Lat,Lon (METOP-C) SZA (METOP-C ) Distance(km) Time Diff (sec)
1 01/23/2021 21:10:33 -80.36, 68.52 79.73 01/23/2021 21:11:41 -80.34, 68.64 79.71 2.67 68
2 01/23/2021 22:01:38 80.34,-124.00 100.27 01/23/2021 22:02:21 80.35,-124.01 100.29 0.34 43
3 01/23/2021 22:52:33 -80.35, 43.17 79.74 01/23/2021 22:53:03 -80.33, 43.17 79.75 1.80 30
4 01/23/2021 23:43:38 80.34,-149.35 100.26 01/23/2021 23:43:43 80.33,-149.48 100.25 2.45 5
5 01/24/2021 00:34:33 -80.34, 17.82 79.76 01/24/2021 00:34:25 -80.32, 17.70 79.78 2.94 8
6 01/24/2021 01:25:39 80.35,-175.03 100.24 01/24/2021 01:25:05 80.32,-174.95 100.22 2.88 34
7 01/24/2021 02:16:32 -80.33, -7.54 79.77 01/24/2021 02:15:45 -80.34, -7.45 79.77 1.79 47



Historial Predications of SNOs between NOAA-19 and METOP-C
